Weather History for OTBD - October, 2011

Change the Weather History Date:

Monday, October 24, 2011

  Actual Average Record
Temperature  
Mean Temperature 85 °F -  
Max Temperature 92 °F 87 °F 95 °F (2000)
Min Temperature 78 °F 68 °F 71 °F (1996)
Cooling Degree Days 20    
Growing Degree Days 35 (Base 50)    
Moisture  
Dew Point 68 °F    
Average Humidity 60    
Maximum Humidity 70    
Minimum Humidity 46    
Precipitation  
Precipitation 0.00 in 0.00 in - ()
Sea Level Pressure  
Sea Level Pressure 29.96 in    
Wind  
Wind Speed 8 mph ()    
Max Wind Speed 100 mph    
Max Gust Speed -    
Visibility 6.0 miles    
Events      
Averages and records for this station are not official NWS values.
T = Trace of Precipitation, MM = Missing Value Source: Averaged Metar Reports

Daily Weather History Graph

Daily Weather History Graph

Search for Another Location

Airport or City:

Trip Planner

Search our weather history database for the weather conditions in past years. The results will help you decide how hot, cold, wet, or windy it might be!

Date:

Astronomy

Oct. 24, 2011 Rise Set
Actual Time 5:36 AM AST 4:59 PM AST
Civil Twilight 5:13 AM AST 5:22 PM AST
Nautical Twilight 4:46 AM AST 5:49 PM AST
Astronomical Twilight 4:19 AM AST 6:16 PM AST
Moon 2:42 AM AST (10/24) 2:59 PM AST (10/24)
Length of Visible Light 12h 09m
Length of Day
11h 22m
Waning Crescent, 9% of the Moon is Illuminated
Oct 24
Waning Crescent
Oct 26
New
Nov 2
First Quarter
Nov 10
Full
Nov 18
Last Quarter

Hourly Weather History & Observations

Time (AST) Temp. Heat Index Dew Point Humidity Pressure Visibility Wind Dir Wind Speed Gust Speed Precip Events Conditions
12:00 AM 80.6 °F 81.8 °F 62.6 °F 54% 29.95 in - NNW 11.5 mph - N/A   Clear
12:30 AM 80.6 °F 82.3 °F 64.4 °F 58% 29.92 in - NNW 11.5 mph - N/A   Clear
1:00 AM 80.6 °F 82.3 °F 64.4 °F 58% 29.95 in - NNW 10.4 mph - N/A   Clear
1:30 AM 80.6 °F 82.7 °F 66.2 °F 61% 29.92 in - NW 10.4 mph - N/A   Clear
2:00 AM 80.6 °F 82.7 °F 66.2 °F 61% 29.92 in - NW 9.2 mph - N/A   Clear
2:30 AM 80.6 °F 82.7 °F 66.2 °F 61% 29.92 in - NW 4.6 mph - N/A   Clear
3:00 AM 80.6 °F 82.7 °F 66.2 °F 61% 29.92 in - NW 4.6 mph - N/A   Clear
3:30 AM 78.8 °F - 66.2 °F 65% 29.92 in - NW 4.6 mph - N/A   Clear
4:00 AM 78.8 °F - 66.2 °F 65% 29.92 in - WNW 4.6 mph - N/A   Clear
4:30 AM 78.8 °F - 66.2 °F 65% 29.92 in - NW 3.5 mph - N/A   Clear
5:00 AM 78.8 °F - 66.2 °F 65% 29.95 in - NW 3.5 mph - N/A   Clear
5:30 AM 78.8 °F - 66.2 °F 65% 29.95 in 5.6 mi NNW 4.6 mph - N/A   Unknown
6:30 AM 80.6 °F 83.2 °F 68.0 °F 65% 29.95 in 5.6 mi NNW 4.6 mph - N/A   Unknown
7:00 AM 82.4 °F 85.4 °F 68.0 °F 62% 29.98 in 5.6 mi NNW 5.8 mph - N/A   Unknown
8:00 AM 84.2 °F 87.3 °F 68.0 °F 58% 30.01 in 5.6 mi North 9.2 mph - N/A   Partly Cloudy
8:30 AM 86.0 °F 90.4 °F 69.8 °F 58% 30.01 in 5.6 mi NNW 4.6 mph - N/A   Partly Cloudy
9:00 AM 86 °F - 69 °F 48% 30.02 in 6 mi NNE 6.9 mph - -   Smoke
9:00 AM 86.0 °F 90.4 °F 69.8 °F 58% 30.01 in 5.6 mi NNE 6.9 mph - N/A   Partly Cloudy
9:30 AM 86.0 °F 90.4 °F 69.8 °F 58% 30.01 in 5.6 mi North 8.1 mph - N/A   Partly Cloudy
10:00 AM 86.0 °F 90.4 °F 69.8 °F 58% 30.01 in 6.2 mi North 8.1 mph - N/A   Partly Cloudy
10:30 AM 87.8 °F 92.6 °F 69.8 °F 55% 30.01 in 6.2 mi NNE 9.2 mph - N/A   Partly Cloudy
11:00 AM 87.8 °F 92.6 °F 69.8 °F 55% 29.98 in 6.2 mi North 10.4 mph - N/A   Partly Cloudy
11:30 AM 87.8 °F 92.6 °F 69.8 °F 55% 29.98 in 6.2 mi NNE 11.5 mph - N/A   Partly Cloudy
12:00 PM 87.8 °F 92.6 °F 69.8 °F 55% 29.95 in 6.2 mi NNE 9.2 mph - N/A   Partly Cloudy
12:30 PM 87.8 °F 90.4 °F 66.2 °F 49% 29.95 in 6.2 mi NE 6.9 mph - N/A   Partly Cloudy
1:00 PM 89.6 °F 92.2 °F 66.2 °F 46% 29.95 in - ENE 5.8 mph - N/A   Clear
1:30 PM 89.6 °F 92.2 °F 66.2 °F 46% 29.92 in - NNE 6.9 mph - N/A   Clear
2:00 PM 87.8 °F 91.4 °F 68.0 °F 52% 29.92 in - NE 9.2 mph - N/A   Clear
2:30 PM 87.8 °F 92.6 °F 69.8 °F 55% 29.92 in - NE 10.4 mph - N/A   Clear
3:00 PM 87.8 °F 92.6 °F 69.8 °F 55% 29.92 in - NNE 9.2 mph - N/A   Clear
3:30 PM 86.0 °F 90.4 °F 69.8 °F 58% 29.92 in - NNE 10.4 mph - N/A   Clear
4:00 PM 86.0 °F 90.4 °F 69.8 °F 58% 29.92 in - NNE 10.4 mph - N/A   Clear
4:30 PM 86.0 °F 90.4 °F 69.8 °F 58% 29.92 in - NE 9.2 mph - N/A   Clear
5:00 PM 84.2 °F 88.4 °F 69.8 °F 62% 29.92 in - NNE 9.2 mph - N/A   Clear
5:30 PM 84.2 °F 89.6 °F 71.6 °F 66% 29.92 in - North 6.9 mph - N/A   Clear
6:00 PM 84.2 °F 89.6 °F 71.6 °F 66% 29.95 in - NNE 8.1 mph - N/A   Clear
6:30 PM 84.2 °F 89.6 °F 71.6 °F 66% 29.95 in - North 5.8 mph - N/A   Clear
7:00 PM 82.4 °F 87.2 °F 71.6 °F 70% 29.95 in - North 8.1 mph - N/A   Clear
7:30 PM 82.4 °F 87.2 °F 71.6 °F 70% 29.95 in - North 8.1 mph - N/A   Clear
8:00 PM 82.4 °F 87.2 °F 71.6 °F 70% 29.95 in - North 9.2 mph - N/A   Clear
8:30 PM 82.4 °F 87.2 °F 71.6 °F 70% 29.98 in - North 100.1 mph - N/A   Clear
9:00 PM 82 °F - 67 °F 52% 29.99 in 7 mi North 8.1 mph - -  
9:00 PM 82.4 °F 85.4 °F 68.0 °F 62% 29.98 in - North 8.1 mph - N/A   Clear
9:30 PM 82.4 °F 85.4 °F 68.0 °F 62% 29.98 in - NNW 8.1 mph - N/A   Clear
10:00 PM 80.6 °F 83.2 °F 68.0 °F 65% 29.98 in - NNW 8.1 mph - N/A   Clear
10:30 PM 80.6 °F 82.7 °F 66.2 °F 61% 29.98 in - NNW 8.1 mph - N/A   Clear
11:00 PM 80.6 °F 82.7 °F 66.2 °F 61% 29.98 in - North 4.6 mph - N/A   Clear
11:30 PM 78.8 °F - 66.2 °F 65% 29.98 in - North 3.5 mph - N/A   Clear